CW7268 Weather Reports


time (UTC)temp
C
wind
direction
speed
KPH
gust
KPH
rain 1hr
cm
rain 24hr
cm
rain mn
cm
humidity
%
barometer
mb
20260902220017 35 241 1.6 6.4 0.00 0.00 0.00 67 1014.3
20260902214516 35 215 1.6 4.8 0.00 0.00 0.00 67 1014.3
20260902213012 35 215 1.6 9.7 0.00 0.00 0.00 68 1014.3
20260902211514 34 204 3.2 8.0 0.00 0.00 0.00 68 1014.4
20260902210007 34 238 3.2 6.4 0.00 0.00 0.00 67 1014.6
20260902204502 34 225 3.2 11.3 0.00 0.00 0.00 68 1014.7
20260902203001 34 250 6.4 14.5 0.00 0.00 0.00 63 1014.8
20260902201558 34 214 3.2 12.9 0.00 0.00 0.00 69 1014.8
20260902200058 34 215 3.2 11.3 0.00 0.00 0.00 69 1015.0
20260902194553 34 221 6.4 14.5 0.00 0.00 0.00 64 1015.2
20260902193050 34 236 6.4 12.9 0.00 0.00 0.00 68 1015.3
20260902191550 34 244 6.4 14.5 0.00 0.00 0.00 66 1015.4
20260902190050 33 223 6.4 17.7 0.00 0.00 0.00 67 1015.4
20260902184548 33 227 8.0 12.9 0.00 0.00 0.00 67 1015.4
20260902183057 33 225 4.8 11.3 0.00 0.00 0.00 69 1015.4
20260902181545 33 230 8.0 16.1 0.00 0.00 0.00 69 1015.5
20260902180045 33 217 9.7 17.7 0.00 0.00 0.00 67 1015.5
20260902174538 33 225 4.8 14.5 0.00 0.00 0.00 68 1015.7
20260902173050 33 242 4.8 14.5 0.00 0.00 0.00 69 1015.7
20260902171534 33 248 8.0 12.9 0.00 0.00 0.00 70 1015.9
20260902170034 32 246 6.4 14.5 0.00 0.00 0.00 70 1016.1
20260902164531 32 241 6.4 12.9 0.00 0.00 0.00 70 1016.2
20260902163024 32 240 6.4 16.1 0.00 0.00 0.00 73 1016.1
20260902161520 31 251 8.0 14.5 0.00 0.00 0.00 74 1016.3
20260902160018 31 254 6.4 16.1 0.00 0.00 0.00 73 1016.3
20260902154517 30 237 4.8 16.1 0.00 0.00 0.00 75 1016.3
20260902153012 30 256 9.7 17.7 0.00 0.00 0.00 75 1016.3
20260902151509 30 268 11.3 17.7 0.00 0.00 0.00 74 1016.2
20260902150007 29 259 8.0 14.5 0.00 0.00 0.00 79 1016.3
20260902144503 28 215 6.4 12.9 0.00 0.00 0.00 80 1016.2
20260902143102 28 254 6.4 16.1 0.00 0.00 0.00 81 1016.3
20260902141558 27 225 8.0 14.5 0.00 0.00 0.00 81 1016.3
20260902140055 27 240 6.4 11.3 0.00 0.00 0.00 83 1016.4
20260902134551 26 234 3.2 8.0 0.00 0.00 0.00 86 1016.4
20260902133048 26 252 4.8 8.0 0.00 0.00 0.00 87 1016.5
20260902131545 25 196 0.0 8.0 0.00 0.00 0.00 89 1016.5
20260902130040 24 180 1.6 4.8 0.00 0.00 0.00 91 1016.7
20260902124538 23 178 4.8 6.4 0.00 0.00 0.00 92 1016.6
20260902123037 23 173 3.2 6.4 0.00 0.00 0.00 93 1016.7
20260902121538 22 173 1.6 4.8 0.00 0.00 0.00 95 1016.8
20260902120035 21 173 3.2 6.4 0.00 0.00 0.00 95 1016.7
20260902114535 20 168 0.0 3.2 0.00 0.00 0.00 95 1016.7
20260902113033 19 168 0.0 0.0 0.00 0.00 0.00 94 1016.6
20260902111532 20 168 0.0 0.0 0.00 0.00 0.00 94 1016.6
20260902110044 20 168 0.0 0.0 0.00 0.00 0.00 94 1016.6
20260902104550 19 168 0.0 0.0 0.00 0.00 0.00 94 1016.7
20260902103046 19 168 0.0 0.0 0.00 0.00 0.00 94 1016.5
20260902101528 19 168 0.0 0.0 0.00 0.00 0.00 93 1016.5
20260902100027 20 168 0.0 0.0 0.00 0.00 0.00 94 1016.4
20260902094525 20 168 0.0 0.0 0.00 0.00 0.00 93 1016.3
20260902093023 20 168 0.0 0.0 0.00 0.00 0.00 94 1016.1
20260902091521 20 168 0.0 0.0 0.00 0.00 0.00 93 1016.0
20260902090027 20 168 0.0 0.0 0.00 0.00 0.00 93 1016.0
20260902084526 20 168 0.0 0.0 0.00 0.00 0.00 93 1016.0
20260902083019 20 168 0.0 0.0 0.00 0.00 0.00 94 1015.8
20260902081519 20 168 0.0 0.0 0.00 0.00 0.00 93 1015.8
20260902080022 20 168 0.0 0.0 0.00 0.00 0.00 92 1015.7
20260902074515 20 168 0.0 0.0 0.00 0.00 0.00 92 1015.8
20260902073013 21 168 0.0 0.0 0.00 0.00 0.00 92 1015.9
20260902071511 21 168 0.0 0.0 0.00 0.00 0.00 92 1015.8
20260902070014 21 168 0.0 0.0 0.00 0.00 0.00 92 1015.9
20260902064510 21 168 0.0 0.0 0.00 0.00 0.00 91 1016.0
20260902063020 21 168 0.0 0.0 0.00 0.00 0.00 90 1016.0
20260902061505 22 168 0.0 0.0 0.00 0.00 0.00 90 1015.9
20260902060001 22 168 0.0 0.0 0.00 0.00 0.00 90 1015.9
20260902054559 23 168 0.0 3.2 0.00 0.00 0.00 92 1016.0
20260902053105 23 168 0.0 3.2 0.00 0.00 0.00 93 1015.9
20260902051608 23 168 0.0 1.6 0.00 0.00 0.00 93 1015.8
20260902050054 23 168 0.0 8.0 0.00 0.00 0.00 94 1015.8
20260902044607 22 206 1.6 4.8 0.00 0.00 0.00 94 1015.9
20260902043052 23 207 0.0 0.0 0.00 0.00 0.00 93 1015.7
20260902041553 23 207 0.0 0.0 0.00 0.00 0.00 93 1015.7
20260902040052 23 207 0.0 0.0 0.00 0.00 0.00 93 1015.7
20260902034552 23 207 0.0 0.0 0.00 0.00 0.00 93 1015.7
20260902033051 23 207 0.0 0.0 0.00 0.00 0.00 93 1015.8
20260902031558 23 207 0.0 0.0 0.00 0.00 0.00 92 1015.9
20260902030055 23 207 0.0 0.0 0.00 0.00 0.00 92 1015.9
20260902024557 24 207 0.0 0.0 0.00 0.00 0.00 92 1015.9
20260902023049 24 207 0.0 0.0 0.00 0.00 0.00 92 1015.8
20260902021551 24 207 0.0 0.0 0.00 0.00 0.00 91 1015.8
20260902020048 24 207 0.0 0.0 0.00 0.00 0.00 90 1015.7
20260902014648 25 207 0.0 0.0 0.00 0.00 0.00 91 1015.6
20260902013051 25 207 0.0 0.0 0.00 0.00 0.00 89 1015.5
20260902011546 26 207 0.0 0.0 0.00 0.00 0.00 86 1015.3
20260902010046 27 206 0.0 0.0 0.00 0.00 0.00 84 1015.2
20260902004545 28 206 0.0 0.0 0.00 0.00 0.00 83 1015.2
20260902003044 29 206 0.0 0.0 0.00 0.00 0.00 83 1015.2
20260902001547 30 206 0.0 1.6 0.00 0.00 0.00 81 1015.2
20260902000043 31 206 1.6 3.2 0.00 0.00 0.00 79 1015.2
20260901234543 32 206 1.6 3.2 0.00 0.00 0.00 78 1015.2
20260901233142 32 206 0.0 0.0 0.00 0.00 0.00 77 1015.3
20260901231546 33 206 0.0 0.0 0.00 0.00 0.00 75 1015.4
20260901230052 33 206 0.0 1.6 0.00 0.00 0.00 73 1015.4
20260901224540 33 206 1.6 4.8 0.00 0.00 0.00 70 1015.4
20260901223040 33 210 1.6 6.4 0.00 0.00 0.00 70 1015.4
20260901221538 34 210 3.2 6.4 0.00 0.00 0.00 68 1015.3